Change the Weather History Date:

Monday, January 21, 2013

  Actual Average Record
Temperature  
Mean Temperature 48 °F -  
Max Temperature 57 °F 57 °F 68 °F (1997)
Min Temperature 39 °F 39 °F 28 °F (2000)
Degree Days  
Heating Degree Days 17    
Moisture  
Dew Point 41 °F    
Average Humidity 63    
Maximum Humidity 87    
Minimum Humidity 32    
Precipitation  
Precipitation 0.00 in 0.05 in - ()
Sea Level Pressure  
Sea Level Pressure 29.66 in    
Wind  
Wind Speed 8 mph ()    
Max Wind Speed 28 mph    
Max Gust Speed 40 mph    
Visibility 6.8 miles    
Events      
Averages and records for this station are not official NWS values.
T = Trace of Precipitation, MM = Missing Value Source: Averaged Metar Reports

Daily Weather History Graph

Daily Weather History Graph

Search for Another Location

Airport or City:

Trip Planner

Search our weather history database for the weather conditions in past years. The results will help you decide how hot, cold, wet, or windy it might be!

Date:

Astronomy

Jan. 21, 2013 Rise Set
Actual Time 8:04 AM CET 5:56 PM CET
Civil Twilight 7:35 AM CET 6:25 PM CET
Nautical Twilight 7:03 AM CET 6:58 PM CET
Astronomical Twilight 6:30 AM CET 7:30 PM CET
Moon 1:25 PM CET (1/21) 3:19 AM CET (1/21)
Length of Visible Light 10h 49m
Length of Day
9h 51m
Waxing Gibbous, 73% of the Moon is Illuminated
Jan 21
Waxing Gibbous
Jan 27
Full
Feb 3
Last Quarter
Feb 10
New
Feb 17
First Quarter

Hourly Weather History & Observations

Time (CET) Temp. Windchill Dew Point Humidity Pressure Visibility Wind Dir Wind Speed Gust Speed Precip Events Conditions
12:00 AM 41.0 °F - 37.4 °F 87% 29.59 in - Variable 2.3 mph - N/A   Clear
12:30 AM 41.0 °F 35.8 °F 37.4 °F 87% 29.59 in - West 8.1 mph - N/A   Clear
1:00 AM 39 °F - 35 °F 80% 29.61 in 9 mi Calm Calm - -   Clear
1:00 AM 42.8 °F 38.0 °F 39.2 °F 87% 29.59 in - WNW 8.1 mph - N/A   Clear
1:30 AM 53.6 °F - 42.8 °F 67% 29.59 in - West 10.4 mph - N/A   Clear
2:00 AM 51.8 °F - 44.6 °F 76% 29.59 in - West 13.8 mph - N/A   Clear
2:30 AM 51.8 °F - 44.6 °F 76% 29.59 in - West 12.7 mph - N/A   Clear
3:00 AM 51.8 °F - 44.6 °F 76% 29.59 in - WSW 9.2 mph - N/A   Clear
3:30 AM 51.8 °F - 44.6 °F 76% 29.59 in - WSW 8.1 mph - N/A   Clear
4:00 AM 50.0 °F - 44.6 °F 82% 29.56 in - Calm Calm - N/A   Clear
4:30 AM 53.6 °F - 46.4 °F 77% 29.56 in 6.2 mi Calm Calm - N/A   Partly Cloudy
5:00 AM 53.6 °F - 46.4 °F 77% 29.56 in 6.2 mi WNW 4.6 mph - N/A   Partly Cloudy
5:30 AM 50.0 °F - 42.8 °F 76% 29.56 in 6.2 mi Variable 1.2 mph - N/A   Partly Cloudy
6:00 AM 50.0 °F - 44.6 °F 82% 29.56 in 6.2 mi Calm Calm - N/A   Partly Cloudy
6:30 AM 53.6 °F - 46.4 °F 77% 29.56 in 6.2 mi Variable 3.5 mph - N/A   Partly Cloudy
7:00 AM 53 °F - 43 °F 60% 29.57 in 9 mi West 8.1 mph - -   Scattered Clouds
7:30 AM 55.4 °F - 46.4 °F 72% 29.56 in 6.2 mi WNW 5.8 mph - N/A   Mostly Cloudy
8:00 AM 55.4 °F - 46.4 °F 72% 29.56 in 6.2 mi West 9.2 mph - N/A   Mostly Cloudy
8:30 AM 55.4 °F - 46.4 °F 72% 29.56 in 6.2 mi West 8.1 mph - N/A   Scattered Clouds
9:00 AM 55.4 °F - 48.2 °F 77% 29.56 in 6.2 mi Variable 1.2 mph - N/A   Scattered Clouds
9:30 AM 53.6 °F - 46.4 °F 77% 29.56 in 6.2 mi Variable 2.3 mph - N/A   Scattered Clouds
10:00 AM 53.6 °F - 48.2 °F 82% 29.59 in 6.2 mi Variable 1.2 mph - N/A   Scattered Clouds
10:30 AM 55.4 °F - 48.2 °F 77% 29.59 in 6.2 mi Calm Calm - N/A   Partly Cloudy
11:00 AM 57.2 °F - 48.2 °F 72% 29.62 in 6.2 mi WNW 10.4 mph - N/A   Partly Cloudy
11:30 AM 57.2 °F - 42.8 °F 59% 29.62 in 6.2 mi NW 23.0 mph 34.5 mph N/A   Partly Cloudy
12:00 PM 59.0 °F - 44.6 °F 59% 29.62 in 6.2 mi NNW 17.3 mph - N/A   Partly Cloudy
1:00 PM 58 °F - 37 °F 34% 29.63 in 16 mi NW 20.7 mph - -   Scattered Clouds
1:00 PM 57.2 °F - 41.0 °F 55% 29.62 in 6.2 mi NNW 25.3 mph 38.0 mph N/A   Partly Cloudy
1:30 PM 59.0 °F - 41.0 °F 51% 29.62 in 6.2 mi NNW 27.6 mph - N/A   Partly Cloudy
2:00 PM 59.0 °F - 41.0 °F 51% 29.62 in 6.2 mi NW 23.0 mph - N/A   Partly Cloudy
2:30 PM 57.2 °F - 41.0 °F 55% 29.65 in 6.2 mi NW 20.7 mph - N/A   Partly Cloudy
3:00 PM 57.2 °F - 39.2 °F 51% 29.68 in 6.2 mi NW 21.9 mph 33.4 mph N/A   Partly Cloudy
3:30 PM 55.4 °F - 39.2 °F 54% 29.68 in 6.2 mi NW 19.6 mph 31.1 mph N/A   Partly Cloudy
4:00 PM 55.4 °F - 41.0 °F 58% 29.71 in 6.2 mi NNW 25.3 mph 40.3 mph N/A   Partly Cloudy
4:30 PM 55.4 °F - 41.0 °F 58% 29.71 in 6.2 mi NNW 18.4 mph 31.1 mph N/A   Partly Cloudy
5:00 PM 55.4 °F - 39.2 °F 54% 29.71 in 6.2 mi NW 17.3 mph 31.1 mph N/A   Partly Cloudy
5:30 PM 55.4 °F - 35.6 °F 47% 29.74 in 6.2 mi NW 19.6 mph 31.1 mph N/A   Partly Cloudy
6:00 PM 55.4 °F - 37.4 °F 51% 29.74 in 6.2 mi NW 16.1 mph 28.8 mph N/A   Partly Cloudy
6:30 PM 55.4 °F - 35.6 °F 47% 29.77 in 6.2 mi NW 12.7 mph - N/A   Partly Cloudy
7:00 PM 53 °F - 32 °F 32% 29.80 in 16 mi NW 8.1 mph - -   Scattered Clouds
7:00 PM 53.6 °F - 35.6 °F 51% 29.80 in 6.2 mi NW 3.5 mph 15.0 mph N/A   Partly Cloudy
7:30 PM 55.4 °F - 37.4 °F 51% 29.80 in 6.2 mi NW 12.7 mph 24.2 mph N/A   Partly Cloudy
8:00 PM 53.6 °F - 33.8 °F 47% 29.80 in 6.2 mi WNW 11.5 mph - N/A   Partly Cloudy
8:30 PM 53.6 °F - 33.8 °F 47% 29.83 in 6.2 mi WNW 6.9 mph - N/A   Partly Cloudy
9:00 PM 53.6 °F - 33.8 °F 47% 29.83 in 6.2 mi NW 10.4 mph - N/A   Partly Cloudy
9:30 PM 51.8 °F - 35.6 °F 54% 29.83 in 6.2 mi NW 5.8 mph - N/A   Partly Cloudy
10:00 PM 51.8 °F - 35.6 °F 54% 29.83 in 6.2 mi WNW 6.9 mph - N/A   Partly Cloudy
10:30 PM 51.8 °F - 37.4 °F 58% 29.86 in 6.2 mi WNW 6.9 mph - N/A   Partly Cloudy
11:00 PM 53.6 °F - 35.6 °F 51% 29.86 in 6.2 mi WNW 10.4 mph 21.9 mph N/A   Partly Cloudy
11:30 PM 53.6 °F - 33.8 °F 47% 29.86 in 6.2 mi NW 4.6 mph - N/A   Partly Cloudy